RH
38 45 45 45 55 59 55 84 38 30 32 30 24 23 24 27 29 30 31 32 33 32 26 23 20 18 17 17 17 16 17 16 15 14 14 12 11 9 11 16 38 20 23
42 48 48 58 62 61 81 64 72 65 39 32 25 25 26 28 30 29 30 32 33 34 36 28 24 22 20 20 19 17 15 13 13 14 14 14 15 13 12 16 59 31 25
48 46 46 43 43 54 90 78 91 74 60 44 30 25 26 29 33 33 33 33 34 37 36 36 28 24 22 21 20 19 17 16 15 13 14 14 15 19 17 26 70 58 56
38 40 40 31 28 50 57 87 98 98 75 60 40 28 30 31 35 38 38 38 36 36 38 38 36 30 27 26 25 25 26 24 22 21 20 18 16 26 23 35 50 65 73
37 37 30 40 39 48 60 91 88 100 88 60 43 33 36 35 37 41 41 40 40 38 38 38 41 40 34 31 29 29 28 27 28 28 27 26 23 22 21 34 47 37 46
28 24 29 43 42 78 95 76 98 90 60 52 42 40 38 40 40 41 42 40 39 38 37 36 38 39 42 39 37 36 34 33 32 30 30 29 30 33 29 25 26 38 48
29 26 26 31 45 42 40 62 58 39 40 38 40 42 42 43 44 43 45 44 44 42 41 39 38 39 39 41 48 50 50 40 35 34 31 32 35 34 37 42 43 37 39
27 22 19 24 34 39 42 41 39 37 38 40 41 43 45 44 45 47 46 46 44 47 44 42 41 41 42 41 40 47 53 68 70 65 59 52 47 52 55 55 50 47 45
23 26 20 18 26 35 40 39 39 41 43 44 46 46 47 48 48 44 41 39 42 46 44 45 44 43 39 33 29 23 18 16 20 28 46 54 45 50 57 66 70 71 70
26 28 27 20 12 21 34 38 39 40 41 41 38 33 26 23 22 22 17 23 25 29 25 37 43 39 24 17 15 17 19 25 29 36 37 39 51 54 41 54 47 48 65
31 28 28 28 26 21 16 15 14 13 12 12 11 11 10 9 8 8 10 10 10 10 11 13 13 21 23 25 23 28 30 30 49 65 54 57 50 49 40 34 55 45 38
34 37 35 30 30 27 24 22 20 19 21 23 24 23 20 18 15 13 10 11 13 17 20 21 20 18 22 31 33 40 40 47 50 47 48 48 44 45 43 45 46 52 47
37 40 40 39 38 36 33 30 29 25 21 17 18 23 30 30 31 31 16 15 15 16 17 17 15 17 24 28 39 44 42 40 38 42 38 39 45 34 26 32 44 52 49
28 40 38 36 39 40 39 39 36 36 41 41 27 23 26 27 30 31 31 28 22 19 17 15 20 30 31 30 31 32 32 30 28 27 23 25 25 21 16 16 28 38 48
23 29 36 34 35 37 38 43 46 41 42 42 38 30 28 28 30 30 30 29 30 34 34 31 32 33 29 24 21 20 19 19 17 15 15 16 14 14 13 11 10 18 26
21 22 24 27 27 28 36 49 51 53 50 43 37 32 30 30 31 30 26 25 26 28 32 34 31 26 20 16 13 14 14 15 15 14 14 14 14 11 9 6 4 5 10
18 19 19 19 19 20 26 43 58 56 48 39 36 34 32 32 32 31 28 25 21 20 22 22 20 16 14 15 15 15 15 14 13 13 11 10 9 8 7 6 5 5 4
16 17 17 20 24 26 35 48 53 56 45 39 35 33 31 27 26 27 25 21 19 18 18 17 16 16 16 16 16 15 14 12 12 11 10 8 8 6 6 6 6 5 5
18 18 23 47 54 45 48 53 54 57 48 43 34 27 25 25 25 23 20 18 18 18 18 17 17 17 17 18 17 15 13 12 11 10 9 8 7 7 6 6 6 5 5
24 25 47 67 59 60 58 59 57 56 58 54 40 31 24 23 22 21 20 20 20 20 18 18 18 18 19 18 16 14 14 14 13 12 11 9 9 8 7 7 7 6 6
32 44 54 60 70 78 75 65 57 60 63 54 43 35 27 23 23 22 21 20 20 19 19 18 18 18 18 17 16 16 16 16 15 14 10 10 10 10 11 10 10 9 8
50 55 59 71 81 87 75 69 58 54 58 53 47 38 30 28 26 25 24 24 23 22 21 21 20 19 19 19 19 20 20 19 18 16 15 15 15 15 16 16 16 13 10
52 55 59 72 89 85 75 72 57 51 54 55 48 42 37 33 31 30 30 29 28 27 26 24 24 24 24 24 24 24 25 26 26 25 23 24 25 23 18 15 14 12 10
78 78 81 88 89 85 80 75 58 52 56 55 47 41 35 33 34 35 36 36 37 38 38 37 36 34 33 32 32 34 37 37 39 38 35 30 21 13 10 9 6 6 7
67 71 67 68 75 82 79 70 59 54 57 57 50 43 38 39 42 43 43 44 44 45 44 46 46 46 47 49 49 48 46 42 42 30 21 14 11 9 7 6 5 4 5
60 64 62 64 70 74 73 65 55 56 68 61 54 50 45 47 49 49 47 46 46 48 50 50 48 46 44 44 46 49 43 29 20 14 10 6 6 5 4 4 8 10 20
Wind_Speed
19 19 18 19 21 19 17 19 12 11 14 18 18 16 17 17 16 14 13 13 14 14 14 13 13 12 11 11 10 9 9 9 9 9 10 10 10 9 8 8 10 10 10
22 20 20 20 21 17 12 11 13 13 15 17 19 18 17 17 15 15 14 14 15 14 14 14 13 12 11 11 11 10 10 9 9 9 10 11 12 11 10 10 9 10 11
22 23 22 21 19 17 13 10 15 14 19 19 20 20 19 18 17 17 15 15 15 15 13 13 13 12 12 11 11 11 10 11 9 9 9 10 10 11 12 12 11 11 12
22 21 22 20 18 17 17 19 11 15 23 25 23 22 20 19 19 18 16 17 16 17 13 12 11 12 11 11 11 12 12 11 11 10 10 9 10 10 11 14 14 13 13
21 20 18 17 16 18 17 22 22 21 25 27 24 23 20 20 20 19 17 17 16 17 16 13 13 11 10 10 11 12 13 14 12 11 10 10 10 11 11 13 14 17 17
20 19 17 16 16 16 19 23 21 27 28 25 25 24 22 21 21 21 19 18 18 17 17 16 14 13 12 11 10 10 11 13 14 14 14 13 11 11 12 13 14 15 17
21 18 15 16 16 18 21 25 28 27 25 25 25 25 23 22 21 21 20 18 19 18 17 17 17 16 14 13 12 11 10 11 13 14 13 13 14 14 13 14 15 16 16
23 19 16 16 18 20 22 24 24 25 25 25 26 26 25 23 22 22 21 19 20 19 18 17 16 16 15 14 14 12 11 11 13 15 15 15 16 16 16 14 16 17 17
24 21 18 16 17 20 22 23 24 25 25 26 26 26 25 24 23 22 21 19 20 19 18 17 17 16 15 13 11 11 11 11 13 14 15 15 15 15 15 16 16 18 18
23 22 20 18 17 18 19 20 21 22 23 24 24 23 23 22 22 19 18 17 17 18 16 16 15 16 16 14 13 12 13 14 15 15 18 18 16 17 21 18 22 24 19
25 23 20 19 21 21 19 19 21 21 22 23 24 24 23 23 22 19 19 17 17 18 19 19 18 18 20 20 19 18 19 20 22 22 22 22 21 21 23 23 24 23 21
27 26 22 21 23 24 24 23 24 25 24 25 26 28 28 27 28 25 24 23 22 23 24 24 24 25 25 26 26 25 25 25 24 24 22 24 23 25 27 27 28 28 28
26 27 24 23 25 26 27 27 28 30 31 31 30 29 29 29 29 30 30 28 28 28 30 29 28 29 30 30 29 30 30 30 29 27 26 27 27 26 25 27 28 30 31
29 29 27 27 27 28 28 29 33 34 34 35 34 32 31 30 30 29 29 30 31 32 34 35 31 29 31 31 32 32 33 32 30 29 29 30 29 29 28 27 29 30 31
31 32 30 30 30 32 31 30 34 37 36 35 34 33 33 32 31 29 28 28 28 30 31 31 30 31 33 33 33 32 33 32 32 31 32 32 34 34 33 32 32 32 32
34 36 33 34 34 36 35 34 36 38 38 35 33 32 32 32 31 30 27 28 30 31 32 32 32 34 35 34 34 34 36 36 36 35 35 36 36 37 37 36 35 38 38
37 39 37 38 38 39 38 40 40 35 33 32 31 31 30 30 31 32 31 32 32 34 34 34 33 33 35 35 36 37 38 39 40 40 40 39 39 40 41 43 43 42 43
37 39 37 38 37 40 41 42 41 35 32 30 29 30 30 31 32 33 34 34 34 35 34 34 34 36 38 38 38 39 40 42 43 43 43 43 44 45 46 49 51 52 52
35 36 35 38 43 45 47 44 40 33 32 29 29 29 30 32 33 34 35 35 35 36 36 37 38 39 40 40 41 42 43 44 45 45 46 47 49 51 54 56 59 60 60
35 34 39 42 45 48 49 46 37 33 33 31 30 30 31 32 33 34 35 36 37 38 39 40 41 42 43 43 45 46 47 47 48 50 51 54 57 60 61 63 66 68 69
37 36 37 43 49 51 51 45 37 33 32 32 33 34 33 34 34 35 36 38 39 41 42 44 45 46 46 48 48 50 51 53 55 57 60 63 66 67 70 70 70 71 74
39 39 41 42 51 49 47 43 37 36 37 36 37 37 36 36 37 38 39 40 42 43 45 46 48 49 49 50 52 54 57 59 60 64 67 69 72 73 75 76 76 74 72
43 43 46 47 49 46 45 44 39 39 41 40 39 39 39 39 40 41 42 43 43 45 46 48 49 50 52 54 56 59 61 64 66 68 71 73 74 75 74 72 71 71 72
44 45 44 42 44 43 44 46 42 43 45 42 42 41 41 42 42 43 43 43 43 45 47 49 50 52 55 58 60 63 65 68 70 70 69 70 68 69 70 73 77 78 81
46 41 40 40 42 41 46 50 47 45 48 47 45 44 44 44 45 44 44 44 46 48 50 51 52 55 58 61 63 65 67 68 66 62 62 67 72 75 81 86 88 85 84
46 44 40 40 42 44 49 53 51 49 50 50 49 48 47 47 46 46 46 47 48 51 53 54 56 57 58 59 61 61 59 57 58 63 67 69 72 79 84 75 70 69 66
Wind_Direction
293 298 308 312 318 318 317 312 313 323 326 327 326 331 333 336 337 337 335 334 338 338 337 333 330 328 324 325 326 319 316 314 309 304 296 291 286 287 291 297 310 319 324
296 298 301 308 314 312 307 296 305 319 320 316 316 318 322 327 326 326 324 325 325 328 333 334 331 329 324 326 322 323 321 314 311 308 305 298 296 295 292 293 298 309 315
297 299 301 301 298 294 269 272 301 316 312 311 307 308 314 319 319 321 319 315 313 320 330 331 327 325 325 323 325 323 321 322 328 327 325 319 309 301 297 295 296 307 314
295 295 295 293 283 280 283 280 285 292 302 307 304 303 309 312 314 317 316 314 311 310 318 320 318 320 320 319 320 320 320 319 322 329 335 331 326 314 305 300 297 303 307
295 294 293 287 271 270 272 279 287 283 296 301 296 298 301 308 310 311 309 306 303 300 304 304 303 308 311 309 312 311 314 314 317 319 320 321 322 319 316 308 301 306 309
299 298 298 289 274 279 259 275 263 281 291 291 292 295 301 305 306 305 304 303 299 296 296 295 294 293 296 300 300 302 306 310 314 316 317 316 311 308 304 302 301 303 308
298 298 295 290 278 266 259 259 270 279 283 288 291 293 297 300 301 299 299 297 295 292 293 292 292 294 291 280 280 280 283 287 297 301 304 306 309 306 306 303 300 300 301
296 295 293 288 282 277 272 269 274 282 287 288 289 292 294 296 296 295 293 296 294 293 292 290 289 290 294 291 288 286 288 290 291 298 300 303 310 305 304 304 304 301 301
295 294 294 289 283 280 280 284 287 289 291 289 288 290 292 294 293 293 293 292 289 288 288 286 286 287 282 276 273 280 287 290 295 297 296 297 301 307 311 309 303 303 293
289 291 293 293 292 287 284 281 281 281 282 284 286 289 290 291 290 289 289 285 285 285 287 287 289 293 289 283 281 283 284 286 287 285 287 287 290 300 305 307 310 313 303
285 285 282 282 283 281 278 278 279 280 282 282 284 285 285 284 285 283 279 278 278 280 280 282 284 285 284 287 284 284 283 282 287 284 282 284 279 286 292 294 290 296 293
282 284 284 282 280 279 279 281 283 282 282 281 281 281 280 278 277 275 274 273 274 276 278 281 283 282 282 281 280 283 283 279 282 282 279 281 282 282 288 291 292 290 288
277 281 286 287 286 286 287 287 285 283 282 280 280 280 277 278 278 272 268 269 270 271 275 277 279 280 277 276 278 278 280 279 279 278 276 275 280 278 278 282 286 289 290
272 275 281 284 288 290 290 291 288 285 285 281 278 277 275 276 278 274 270 268 269 272 273 274 275 276 276 276 276 278 278 277 277 276 279 279 279 280 282 281 280 281 284
270 273 275 280 285 288 289 288 286 283 281 280 275 273 273 276 275 273 268 268 269 271 271 270 271 273 274 275 274 274 274 275 276 276 278 279 281 282 284 283 283 282 282
267 272 276 278 280 285 288 292 288 285 281 277 273 270 271 274 273 271 272 271 271 269 268 269 269 271 272 273 274 274 275 276 277 278 278 278 278 280 278 279 281 285 284
267 272 278 280 282 283 286 292 288 286 275 272 271 269 270 272 271 271 273 273 273 271 269 268 268 267 269 270 272 274 276 279 280 279 278 277 277 278 280 280 281 281 284
267 272 278 282 284 284 285 290 292 280 272 271 271 272 272 272 272 272 273 274 273 271 268 267 268 270 271 273 274 275 275 277 279 279 280 280 280 282 283 282 281 280 280
269 272 277 283 286 288 288 293 289 280 270 274 274 273 272 271 271 274 274 273 272 270 268 269 270 270 272 275 276 276 277 277 278 278 279 280 281 280 280 279 279 277 277
270 272 278 282 282 287 288 293 286 280 274 274 277 277 275 273 272 273 272 272 270 271 271 272 272 273 275 276 276 276 277 278 278 279 280 280 279 277 276 275 275 275 275
272 272 275 277 281 285 288 289 281 280 277 275 276 276 275 273 273 273 273 273 274 274 274 274 274 275 275 275 277 278 280 280 281 281 281 281 281 280 279 279 279 278 276
272 273 275 280 285 283 285 284 279 279 278 277 277 277 275 274 274 274 275 275 276 276 277 277 276 276 276 277 278 279 281 281 282 282 282 282 282 282 281 280 280 278 275
274 274 276 277 281 278 279 278 278 281 282 279 276 274 273 273 274 275 276 276 278 278 278 278 278 279 280 280 280 282 281 281 282 282 282 283 284 284 283 282 281 277 274
270 269 270 269 275 274 273 274 276 280 282 278 276 276 275 275 275 276 277 277 278 279 280 281 282 283 282 282 281 280 281 283 285 287 289 289 289 287 287 285 281 279 276
265 263 262 262 267 267 268 271 275 276 279 279 277 276 275 276 277 278 279 282 284 284 284 284 283 282 281 281 282 283 285 287 289 291 291 292 296 293 289 285 283 274 269
264 261 258 258 258 259 262 268 273 274 275 276 277 275 276 276 278 278 280 282 283 283 283 283 282 282 284 286 287 289 292 296 300 301 304 300 298 291 289 286 279 273 267